GFSSW_850_rhum_228.txt.gz
RH
100 99 100 100 100 88 64 53 44 38 33 35 37 38 39 39 37 36 33 30 27 27 27 31 35 33 30 28 29 30 48 54 39 37 29 22 25 21 19 29 39 43 40 28 33
74 92 100 100 100 100 98 70 58 51 42 36 35 36 39 39 37 32 26 28 24 22 24 26 34 31 29 32 31 36 52 47 36 30 26 25 25 23 20 21 44 41 45 38 33
81 88 83 97 99 100 100 100 81 67 62 49 41 35 36 40 39 29 29 34 25 25 26 30 35 32 31 31 31 35 43 37 29 26 25 27 26 21 19 20 28 32 40 43 41
84 82 82 78 88 95 100 100 100 97 76 68 57 47 39 42 46 33 42 36 36 37 35 36 34 32 34 34 28 36 34 29 27 24 26 27 22 22 20 18 16 19 22 33 36
86 83 76 78 83 80 84 99 100 100 100 87 78 69 57 54 40 39 44 38 40 39 36 35 33 32 35 32 29 33 29 26 24 23 24 23 24 24 21 18 16 14 14 23 29
72 70 75 78 83 82 88 83 96 100 100 100 98 87 82 95 33 27 35 40 38 37 35 35 34 34 34 35 33 29 28 28 26 25 25 25 25 22 19 18 16 16 14 15 23
66 74 73 74 84 86 86 83 76 91 100 100 100 100 100 63 38 33 30 27 28 31 33 36 37 38 36 37 32 31 33 34 33 28 29 24 28 27 19 18 18 16 15 15 15
62 64 66 69 79 86 87 83 76 73 81 100 100 100 98 85 53 42 39 38 33 37 34 34 44 46 40 35 36 35 34 42 29 32 26 25 34 27 19 19 19 18 17 20 17
63 61 63 64 68 75 82 85 77 74 70 82 100 100 96 97 87 58 35 32 46 52 52 50 50 45 41 49 53 47 56 46 37 27 27 28 34 25 20 21 21 19 20 18 16
88 70 60 77 70 73 75 78 80 78 68 75 97 100 94 90 79 69 52 33 34 35 44 56 55 58 61 58 54 56 55 46 41 28 31 33 35 28 24 24 24 22 21 21 18
98 91 79 65 81 77 84 85 71 96 94 82 92 88 73 77 69 66 57 55 59 58 67 62 76 78 58 50 42 37 45 50 39 31 32 36 37 33 27 28 28 24 22 22 21
93 97 96 85 57 87 88 96 88 88 88 78 74 98 79 78 61 61 59 63 64 70 57 71 75 49 51 48 48 45 47 46 44 36 35 41 40 36 33 27 28 26 24 21 20
78 84 92 99 87 68 78 86 96 96 91 76 65 86 92 82 88 62 72 62 69 72 55 53 45 47 53 55 56 52 52 48 48 39 36 42 42 35 32 29 26 25 23 22 21
78 81 81 98 99 88 75 58 86 97 97 68 70 71 75 85 84 63 68 60 68 63 57 58 40 48 52 61 54 65 46 46 45 49 59 38 47 35 31 32 32 27 24 20 20
68 76 81 95 100 98 57 45 75 94 100 55 55 47 66 76 64 75 67 65 69 71 58 54 59 54 56 55 49 54 42 45 47 52 58 51 62 46 35 34 31 27 24 20 19
80 74 81 87 99 98 98 77 78 98 91 58 62 89 93 78 63 64 65 60 59 60 58 61 42 40 44 42 44 42 48 44 49 57 80 53 52 37 36 34 32 28 24 22 19
86 83 85 90 97 97 100 95 98 96 54 71 77 76 77 83 84 68 78 71 86 97 92 70 61 48 44 55 47 50 57 74 82 89 70 45 48 37 28 24 26 25 27 22 21
86 90 86 93 85 100 100 99 96 71 70 45 56 64 76 68 74 79 78 86 68 73 88 85 88 66 51 51 58 58 54 71 77 64 53 42 48 31 23 24 22 20 21 22 26
87 86 96 79 81 98 100 97 87 66 53 42 41 48 63 66 64 72 81 83 70 69 86 79 78 51 54 48 44 60 68 51 63 61 73 50 36 32 27 28 29 28 27 27 28
99 96 98 91 94 99 99 89 87 50 36 35 41 45 65 61 77 73 72 64 66 63 56 65 83 52 59 51 47 47 44 73 70 96 85 50 57 40 41 30 27 34 41 32 33
100 98 88 83 99 99 96 84 62 51 42 40 46 47 40 38 87 75 93 57 56 52 61 64 71 61 59 67 69 61 58 65 79 89 83 62 46 32 28 37 37 36 35 32 37
99 99 86 100 99 98 94 72 54 55 45 47 53 48 40 35 39 54 96 86 70 76 70 65 74 84 65 48 48 51 54 62 89 86 79 70 58 37 36 38 38 32 33 33 36
99 99 90 96 97 94 78 71 67 64 56 57 58 53 46 49 52 41 38 33 34 49 96 68 94 98 87 74 59 63 54 48 56 69 74 76 57 37 36 45 44 44 39 40 46
99 98 99 100 99 90 84 79 81 62 67 51 56 52 56 63 61 57 41 43 62 65 74 92 99 95 88 68 61 86 65 52 54 74 63 64 49 38 46 46 45 48 46 50 51
99 99 88 97 95 98 86 73 74 78 65 64 64 57 57 70 66 67 62 56 47 43 64 95 98 99 91 55 46 54 67 67 58 57 71 57 53 41 45 50 46 43 55 60 63
98 99 100 98 78 90 86 84 79 72 68 75 72 59 56 62 58 60 55 56 51 47 67 98 94 97 93 97 85 65 56 64 67 54 50 52 53 36 42 42 54 57 54 58 58
97 98 99 96 91 97 88 78 73 68 64 57 64 64 62 55 45 41 42 49 50 68 84 92 95 88 89 82 94 95 89 70 67 70 58 59 46 37 38 36 36 58 52 51 52

GFSSW_850_rhum_231.txt.gz
RH
85 86 88 99 100 100 100 100 75 62 48 37 35 35 36 36 35 35 34 28 27 28 28 29 34 36 30 28 29 30 33 34 29 30 23 23 23 22 20 29 37 39 38 33 31
92 87 85 87 94 100 99 100 100 87 70 58 45 36 34 36 34 32 24 28 26 25 24 25 30 35 30 34 30 30 36 31 27 25 24 23 25 24 20 20 43 44 38 37 34
87 92 86 82 82 88 94 100 100 100 98 77 66 51 40 36 36 28 22 25 26 23 25 27 31 33 31 33 35 34 31 31 28 27 25 26 25 23 20 19 20 34 34 39 42
73 80 84 83 77 87 88 89 99 100 100 100 91 74 59 45 37 33 37 42 39 32 35 35 36 33 32 31 32 34 33 30 26 26 29 25 24 22 21 19 18 18 24 35 40
42 59 71 73 75 77 89 93 84 94 100 100 100 99 85 67 40 43 44 41 41 41 43 39 34 34 34 31 30 32 30 30 29 26 27 25 23 23 22 20 19 18 17 23 29
40 44 61 77 77 75 84 93 94 83 86 100 100 100 100 92 38 29 39 44 44 42 38 36 34 33 34 32 30 29 29 26 28 26 26 26 25 24 20 19 19 17 16 18 24
67 42 47 66 78 81 83 90 96 86 78 83 100 100 100 75 44 34 30 31 40 39 36 38 35 36 36 36 33 32 32 30 30 29 26 26 27 26 20 21 19 18 16 16 19
74 73 52 58 68 71 79 85 92 96 86 76 79 100 98 96 82 50 41 35 30 34 34 35 42 42 40 36 37 35 34 36 27 28 26 24 25 18 21 22 21 19 18 16 16
90 85 80 56 56 69 73 85 87 91 89 91 75 94 96 94 93 80 48 36 41 51 53 49 48 52 45 43 43 42 41 41 32 27 26 26 27 18 21 23 22 23 21 18 16
89 90 91 86 64 77 80 80 80 85 90 91 97 93 77 96 94 81 76 47 40 40 52 55 58 50 49 48 51 45 49 40 32 27 29 28 28 20 23 22 22 21 22 21 20
75 83 87 93 87 66 89 82 76 86 93 77 87 96 78 97 88 84 78 72 63 52 51 63 62 63 47 44 39 34 35 36 34 29 30 29 29 24 21 26 26 24 24 24 20
79 84 76 87 97 90 80 94 86 96 94 90 92 96 76 82 96 77 74 71 66 62 46 61 65 45 44 46 46 45 44 40 36 32 33 32 33 27 25 24 25 26 25 24 23
75 82 79 79 90 96 71 75 90 97 99 77 75 88 78 69 89 88 76 64 62 64 52 45 35 39 46 53 54 49 48 43 42 35 34 37 36 29 26 28 26 26 26 25 25
81 71 73 87 86 96 93 73 70 98 96 64 68 59 71 82 86 82 85 65 59 64 54 45 30 37 44 47 50 54 43 44 43 46 47 31 40 24 20 22 26 27 28 28 25
86 88 83 84 98 98 92 84 65 98 96 45 53 52 54 78 76 79 75 74 72 57 60 74 56 43 46 44 44 45 36 44 46 50 48 45 52 31 23 27 24 25 28 22 19
75 84 90 83 90 89 96 85 92 99 90 52 54 71 69 68 59 55 74 87 84 70 55 52 41 40 39 39 45 43 45 46 48 50 65 44 46 32 22 23 22 23 23 23 21
83 79 87 94 97 92 99 91 97 94 47 47 63 63 69 74 71 56 81 96 93 98 99 77 58 39 40 46 41 49 61 100 100 94 67 35 44 37 27 20 18 22 24 25 25
76 72 70 83 86 94 99 100 96 68 58 44 46 58 78 67 71 69 74 91 83 82 85 95 98 71 49 48 51 56 55 81 80 65 51 39 45 32 22 21 20 22 21 22 27
82 84 98 67 88 98 99 97 83 59 50 42 38 49 55 63 76 76 79 90 76 78 92 97 96 56 49 44 42 58 77 68 80 72 81 43 32 27 23 22 25 23 23 25 25
90 96 79 75 96 100 99 90 74 45 36 35 39 45 53 52 64 92 78 83 82 74 66 64 87 52 57 47 44 48 54 96 96 97 86 49 45 39 34 25 23 23 26 26 24
87 96 60 77 99 100 96 79 64 51 45 44 43 38 42 36 32 50 88 65 66 68 72 68 82 79 64 71 74 69 68 81 81 84 69 55 38 27 29 26 27 25 22 22 26
89 99 75 92 99 100 91 68 59 54 51 51 47 46 42 36 35 41 49 64 78 92 92 80 88 98 87 57 54 56 63 78 89 95 76 67 57 25 30 30 28 28 26 25 27
96 97 76 98 97 95 83 91 66 61 56 55 54 48 42 43 46 39 38 27 26 62 92 97 95 97 78 70 62 67 56 55 61 64 68 74 51 37 30 36 38 35 33 31 33
91 97 93 97 96 87 89 93 95 64 62 59 56 51 52 68 50 49 44 34 38 37 66 84 100 99 90 86 92 72 71 54 57 80 63 60 44 42 40 37 38 42 38 41 46
84 92 90 94 91 95 89 73 75 78 64 62 70 66 63 75 70 66 54 48 41 40 64 90 95 96 93 90 85 88 97 86 68 62 73 53 48 40 33 34 40 42 46 46 55
93 93 95 94 96 91 88 94 91 90 92 82 78 60 66 74 64 58 56 58 51 44 50 76 77 66 83 64 50 87 66 83 85 84 69 54 50 34 33 34 34 46 46 56 51
89 91 98 81 94 96 86 74 75 64 71 65 62 66 73 63 52 48 45 47 51 54 58 75 71 74 80 48 74 88 69 56 84 90 75 81 54 40 39 39 35 32 42 45 38

GFSSW_850_rhum_234.txt.gz
RH
74 83 90 93 93 90 97 100 100 100 76 60 51 36 33 34 34 36 48 31 30 28 31 34 35 32 30 24 24 22 17 14 14 15 12 15 16 18 18 18 24 29 36 40 55
55 69 77 85 86 91 95 92 100 100 100 85 66 57 41 36 33 44 28 26 28 30 30 37 32 34 29 25 24 19 17 14 12 12 13 14 16 17 16 15 15 27 46 50 67
40 59 63 66 75 81 90 92 88 98 100 100 95 71 64 54 51 33 25 22 24 26 25 36 32 31 25 24 22 20 20 14 16 15 14 15 16 17 15 15 14 20 28 50 59
44 27 40 52 59 66 80 88 92 90 97 100 100 100 83 74 33 37 28 29 23 24 28 40 34 29 25 24 22 23 20 18 17 18 19 17 16 17 16 14 16 18 19 39 53
68 54 32 33 51 65 72 81 90 93 88 94 100 100 100 92 53 41 46 44 42 39 45 36 31 26 24 22 22 25 17 21 20 19 19 19 18 17 15 16 16 18 19 30 44
74 68 61 34 45 64 76 79 85 90 96 85 92 100 100 82 50 43 36 46 50 48 44 37 28 25 23 22 22 20 20 19 20 20 20 21 19 18 15 15 16 18 18 21 30
85 81 73 63 39 56 65 72 84 90 99 95 88 92 99 95 73 57 35 39 51 51 41 37 33 30 26 26 25 22 24 21 21 20 20 20 21 19 16 16 17 16 17 17 21
86 89 90 84 70 41 50 64 72 83 95 99 99 99 98 87 94 76 62 56 36 45 49 44 44 34 31 27 27 27 25 26 17 18 20 21 20 13 15 16 16 16 16 16 16
77 78 81 78 86 71 46 56 65 72 87 99 100 100 93 82 88 91 81 66 52 50 44 48 46 38 36 33 30 27 26 26 19 18 18 22 18 12 12 15 15 16 15 15 16
70 73 72 76 79 86 66 54 60 69 81 91 100 98 80 79 82 92 80 73 57 50 61 55 42 36 37 36 34 27 30 25 26 20 22 21 19 13 15 16 15 14 16 15 16
76 71 75 73 72 83 93 82 68 79 99 74 90 97 81 98 95 96 87 88 62 45 41 45 47 44 31 31 27 21 22 27 21 19 24 21 18 16 15 15 16 16 15 15 16
75 76 72 78 75 84 94 85 71 89 96 89 91 93 82 78 98 89 93 88 96 71 37 43 48 29 27 25 30 31 28 26 20 23 26 22 20 17 16 16 16 17 17 17 17
80 85 76 72 81 74 99 95 80 96 100 80 72 77 81 94 92 86 97 88 82 89 63 38 33 29 26 31 36 35 32 28 26 23 26 26 27 21 16 16 17 18 18 18 18
82 77 77 83 75 96 95 99 94 91 95 46 56 61 72 87 88 81 92 98 79 85 72 52 26 23 30 36 33 40 26 26 27 31 35 24 32 19 14 12 12 14 18 18 18
84 76 76 86 86 98 90 91 82 79 90 35 39 49 60 81 54 72 70 99 91 78 69 80 51 34 27 30 28 32 22 27 31 32 29 25 27 20 14 15 13 12 13 17 18
65 68 72 94 88 90 83 85 84 98 72 35 34 54 57 73 59 51 83 96 96 88 81 70 45 41 37 24 24 22 31 28 33 36 43 29 26 21 17 16 16 12 13 15 18
60 59 64 87 93 81 90 96 98 91 31 30 33 36 58 66 71 56 89 96 96 100 100 89 83 58 36 36 34 30 42 94 92 66 48 23 27 24 17 16 15 14 12 14 16
63 49 83 50 73 79 97 100 95 42 45 26 33 28 43 93 59 58 70 95 83 86 97 98 99 79 55 45 62 61 65 73 73 62 44 30 36 24 17 16 17 18 16 14 15
56 88 93 54 58 92 99 99 63 42 36 34 26 28 25 38 91 80 67 76 90 84 98 100 98 72 50 35 39 69 95 48 69 66 55 32 27 22 19 18 16 16 17 18 17
94 86 79 79 96 100 100 87 54 44 37 33 36 26 30 24 37 75 98 78 58 73 79 87 96 72 67 53 50 72 55 92 99 99 86 40 34 27 20 20 19 18 18 18 18
91 85 76 78 94 100 97 73 51 48 45 55 39 36 31 30 29 33 36 58 91 94 91 88 97 66 74 86 86 92 96 92 83 69 57 44 29 17 18 18 19 18 17 18 20
92 85 79 78 99 99 95 65 53 52 50 46 46 45 41 35 37 38 37 30 63 76 91 100 100 98 72 47 53 60 75 90 96 92 59 51 48 19 19 18 20 20 19 20 21
88 76 70 99 90 88 63 78 82 60 50 42 44 39 37 41 48 34 33 26 27 53 70 46 96 95 83 58 70 88 63 70 73 51 64 70 48 23 20 21 21 23 23 31 35
92 83 85 97 76 76 82 78 65 84 67 58 52 44 56 61 46 43 36 29 33 35 47 59 70 86 88 96 93 93 90 96 89 90 70 57 40 25 26 25 24 29 37 46 47
95 74 67 75 81 71 57 85 72 64 82 56 76 67 57 63 58 61 46 40 33 32 38 72 91 90 85 69 72 82 86 75 92 94 86 51 40 29 23 25 28 30 36 43 49
88 87 68 66 56 61 58 66 62 52 65 58 61 50 54 58 58 71 49 50 46 38 42 44 83 63 76 63 54 50 42 50 72 82 79 66 63 39 24 21 22 23 26 29 40
83 81 89 60 62 66 61 60 66 46 50 48 61 57 54 64 50 46 44 45 45 50 52 64 70 67 66 44 50 67 55 46 45 45 54 68 49 58 49 38 30 30 30 29 29

GFSSW_850_rhum_237.txt.gz
RH
27 24 43 66 71 74 72 78 87 96 100 100 98 71 53 43 35 34 50 38 39 40 33 36 31 26 24 20 18 17 16 15 11 11 10 8 10 10 12 13 15 17 22 28 40
50 29 30 45 55 62 66 67 76 85 91 99 100 99 76 63 55 56 39 36 34 34 34 30 29 26 23 20 18 16 16 14 8 8 10 9 10 10 12 11 13 17 30 32 47
63 54 32 23 28 45 55 75 61 81 83 87 99 100 100 85 79 42 33 26 24 29 34 30 27 24 25 20 18 18 19 12 10 11 10 10 10 11 13 10 9 13 26 33 48
68 66 55 45 31 24 36 68 79 64 83 80 83 100 100 98 45 43 29 25 24 24 38 38 30 26 22 22 18 18 14 13 12 12 12 10 11 10 11 12 10 14 18 30 39
70 73 66 56 49 33 28 49 69 77 76 88 81 79 95 100 63 46 40 38 27 26 38 35 30 25 24 20 18 18 16 14 14 13 14 14 12 12 12 12 12 14 16 22 33
78 82 86 76 66 56 39 39 60 68 74 83 94 94 94 96 66 46 42 52 48 49 40 34 30 24 21 19 18 16 16 16 13 15 14 15 14 14 13 12 11 13 15 16 22
73 74 74 84 85 79 69 44 42 64 68 78 89 100 100 90 83 69 56 39 49 42 37 35 29 22 21 18 18 17 18 16 15 14 15 15 16 16 13 11 11 12 14 15 16
64 66 70 74 75 76 80 68 48 43 63 69 93 99 100 77 68 86 77 49 39 43 41 33 31 26 23 19 19 19 19 23 15 14 15 16 18 13 13 12 12 13 13 14 14
77 69 61 66 72 70 70 77 67 43 59 75 90 99 95 77 72 66 77 67 42 47 48 42 37 30 26 25 26 23 25 22 16 12 14 17 18 11 10 11 12 12 13 13 13
71 73 68 63 64 64 64 68 66 62 70 95 100 100 87 75 73 89 77 91 61 44 45 48 40 37 30 27 32 28 25 20 17 13 12 14 16 12 10 10 10 11 12 12 13
64 77 79 66 57 63 72 79 57 66 92 66 60 81 53 84 100 92 88 100 91 55 42 42 45 41 28 25 22 18 18 18 16 12 13 17 16 13 11 10 11 12 11 12 12
77 83 79 64 55 52 69 94 75 88 83 58 66 68 82 71 95 79 99 99 98 92 39 36 52 28 22 20 23 22 20 17 14 14 15 17 18 13 10 10 11 12 12 11 12
82 61 63 57 57 62 91 88 93 89 88 56 49 49 48 73 81 66 92 97 93 88 63 43 37 27 25 22 21 22 23 20 16 15 15 18 21 17 12 10 11 12 12 13 13
49 45 56 48 65 85 69 78 73 96 92 46 31 40 44 66 80 73 83 98 91 91 73 53 27 28 31 30 23 27 18 19 18 18 23 20 29 17 13 12 11 12 13 13 13
57 41 42 58 86 79 69 71 91 88 87 22 22 34 41 74 43 60 72 98 94 90 87 86 47 30 31 27 23 25 18 20 23 23 21 19 24 20 14 12 11 10 11 12 14
69 62 45 65 76 75 90 93 95 90 72 27 21 32 47 52 57 47 79 96 89 94 90 92 58 42 31 25 21 19 23 24 26 28 37 26 22 18 15 12 10 9 8 9 10
57 65 68 73 68 71 89 93 93 81 29 23 27 41 40 53 62 58 66 97 99 100 100 89 93 71 54 50 26 22 34 61 64 54 56 26 24 19 13 10 10 9 9 10 10
42 38 90 81 74 74 93 89 88 41 42 25 23 20 23 41 84 80 62 94 91 95 100 99 97 86 70 66 45 33 39 80 71 61 43 28 29 18 12 11 12 11 12 12 12
36 65 66 65 79 90 98 93 56 38 60 42 26 27 19 25 53 85 96 62 80 90 97 99 98 72 71 58 49 49 48 39 49 36 40 29 24 18 14 12 11 12 13 14 15
80 58 54 75 89 99 97 85 46 31 33 36 48 31 44 29 36 41 83 97 99 98 100 93 92 78 71 68 68 76 46 70 75 100 94 32 29 25 19 17 14 15 15 14 15
77 55 54 73 88 99 92 75 49 33 29 33 36 39 34 34 36 48 42 54 95 96 88 100 100 75 79 96 92 97 96 88 79 91 65 45 29 17 16 15 16 16 16 16 16
68 79 64 80 81 96 92 60 60 50 33 36 36 43 40 32 31 31 33 33 57 51 86 100 99 98 86 59 63 72 84 94 97 99 66 45 36 14 16 16 15 16 15 16 17
70 66 53 69 87 80 50 48 61 71 64 53 43 36 36 38 40 30 27 23 32 50 78 76 94 86 59 59 72 96 96 97 95 74 73 74 46 20 19 18 16 18 19 26 26
68 86 86 74 58 55 53 56 53 65 56 48 48 46 46 49 39 42 38 36 39 39 58 69 88 88 91 97 96 96 98 100 97 100 88 59 36 22 20 20 18 23 30 30 31
80 77 59 79 89 55 42 50 50 50 34 47 71 53 49 53 47 47 36 36 32 32 32 54 76 81 86 79 63 65 63 78 96 89 93 52 40 26 25 26 21 26 30 33 38
94 85 59 59 49 51 46 49 43 37 62 56 56 50 46 55 46 54 45 48 46 38 42 42 72 64 66 46 45 52 42 42 44 68 84 61 55 36 32 29 26 23 25 24 22
79 66 81 63 56 60 56 44 37 33 57 45 39 58 90 85 57 50 47 46 42 50 53 58 75 67 64 42 45 61 46 39 37 33 44 55 38 33 33 34 32 37 42 39 32

GFSSW_850_rhum_243.txt.gz
RH
45 48 50 47 44 40 35 28 26 25 25 25 22 24 37 70 85 84 79 38 33 26 33 32 35 39 38 35 31 28 35 34 29 25 20 13 11 8 9 9 10 12 31 41 51
33 40 46 48 46 47 44 38 33 30 30 30 30 32 26 20 60 73 70 58 28 26 30 38 34 34 38 35 32 29 32 30 21 18 18 14 12 9 9 10 10 32 40 46 51
37 40 44 46 47 48 47 48 48 46 38 34 33 33 36 31 33 64 65 77 69 62 43 36 40 42 39 34 31 28 31 23 20 17 16 15 13 9 11 12 10 22 48 49 51
49 55 56 56 56 54 54 51 50 49 51 42 36 33 35 39 64 70 57 62 62 60 45 43 43 46 42 42 29 30 22 21 19 17 16 17 14 12 10 12 10 11 36 48 51
47 43 44 45 46 47 45 45 45 49 53 53 45 35 43 62 46 35 53 58 67 63 64 54 47 42 43 37 33 28 23 20 18 17 16 16 15 14 12 10 11 12 27 51 55
45 36 32 32 30 31 33 36 39 50 52 58 58 42 83 95 30 21 19 39 55 73 66 66 46 37 36 36 38 26 24 23 20 17 16 16 16 13 12 12 11 11 25 42 47
41 33 29 29 26 24 23 24 25 28 48 51 66 69 99 83 30 30 30 40 48 68 69 62 62 42 32 34 31 28 30 26 23 20 20 16 20 18 12 12 12 12 13 30 38
19 15 18 18 19 22 26 22 15 14 29 47 76 73 98 46 45 45 46 32 31 63 66 58 64 65 39 31 28 33 30 36 25 22 19 19 24 17 12 13 13 12 12 18 32
17 14 13 13 14 17 20 18 9 10 25 64 90 88 86 66 60 50 61 59 71 51 73 69 72 68 41 41 44 38 44 37 30 21 21 20 23 18 14 13 14 13 12 12 13
18 12 10 10 11 14 18 38 41 51 56 86 97 97 79 55 57 58 58 65 80 88 92 71 67 61 43 43 61 49 44 35 33 24 22 22 22 17 14 14 14 14 13 12 11
27 17 10 8 9 12 57 68 76 69 79 84 76 89 65 57 57 62 61 71 69 92 96 79 93 67 53 40 36 34 38 34 27 22 23 23 22 18 15 14 14 14 14 13 12
21 27 23 14 7 50 89 79 97 90 98 83 76 69 60 60 72 63 57 68 74 90 81 94 97 78 44 44 43 38 38 36 27 22 23 24 22 18 16 14 14 14 14 13 12
24 24 33 19 14 77 63 78 79 76 88 68 49 53 51 47 56 52 46 64 84 80 88 96 87 77 63 52 50 43 40 35 32 24 21 22 24 21 16 14 14 14 13 13 13
50 41 28 17 45 44 54 72 75 70 98 56 32 30 36 36 43 47 44 56 75 88 94 95 76 78 83 68 48 52 34 31 30 31 33 22 34 22 18 16 14 13 13 13 12
57 53 50 31 63 78 62 69 64 65 100 30 40 48 53 42 40 56 56 66 84 77 94 92 83 87 87 80 52 48 32 33 32 32 28 26 34 23 18 18 15 14 12 12 12
55 50 58 49 46 43 67 66 62 92 91 34 36 40 36 41 54 58 81 70 83 93 80 92 88 89 83 71 58 48 47 42 33 35 48 30 28 26 19 18 14 14 14 13 12
54 47 50 71 58 70 82 72 95 100 40 32 29 34 37 56 77 74 86 94 98 99 93 64 86 83 82 94 72 70 83 86 72 70 57 28 31 26 18 14 17 17 14 13 13
53 47 36 57 56 67 85 91 100 53 45 27 29 41 43 69 72 78 96 89 100 98 99 95 71 72 72 93 92 84 93 96 88 68 75 48 48 28 18 16 14 14 14 14 13
57 44 28 60 73 72 85 98 83 49 33 38 40 50 44 35 53 65 87 84 92 95 96 95 89 52 64 65 78 92 100 83 91 77 66 45 51 38 30 25 18 17 15 15 12
67 54 63 76 72 79 96 86 64 42 40 41 63 46 65 57 47 45 56 83 98 96 100 91 92 70 70 70 78 78 74 98 99 98 94 58 44 48 32 32 26 24 20 15 14
70 81 62 74 71 86 98 86 61 44 39 46 81 89 70 60 56 47 64 84 75 90 84 91 98 69 75 91 92 98 98 98 98 99 92 73 50 27 26 22 28 25 20 19 15
95 91 62 60 78 91 97 60 44 49 42 43 58 68 69 67 60 51 58 77 63 55 80 94 97 92 95 85 75 71 91 97 99 99 87 83 51 23 23 30 26 23 20 17 16
88 78 50 58 96 96 72 63 51 47 41 62 49 62 63 60 74 53 51 61 61 66 81 71 94 94 74 94 83 97 100 100 100 99 99 92 58 28 46 46 43 38 24 18 16
91 99 63 59 68 79 79 74 71 47 41 34 36 34 44 84 66 70 66 53 62 66 66 67 87 83 90 93 98 98 98 100 98 98 99 87 50 51 52 66 59 54 42 38 35
92 88 76 94 88 81 69 65 67 61 41 38 48 52 56 82 91 77 58 65 61 56 62 80 99 88 80 79 92 94 96 90 96 96 97 84 73 48 53 79 72 60 59 36 39
98 98 76 80 70 76 70 75 70 54 49 52 58 49 68 78 71 96 80 78 90 65 91 98 96 95 88 67 70 89 68 80 69 70 90 82 90 43 66 86 76 67 61 48 29
84 79 96 85 82 89 81 71 64 50 43 38 40 48 69 70 56 46 45 50 71 82 79 92 96 92 86 70 74 90 76 59 51 47 52 62 55 43 54 53 80 74 62 60 31

GFSSW_850_rhum_246.txt.gz
RH
28 35 40 38 40 41 40 36 34 32 31 28 27 26 22 20 14 12 42 61 60 33 30 25 29 36 40 42 39 33 52 45 37 34 26 19 20 16 14 10 14 28 34 37 47
23 27 33 40 48 52 52 48 44 41 37 37 33 27 26 24 18 11 15 34 72 66 62 41 28 40 46 40 38 41 48 41 30 26 24 20 19 18 15 12 42 34 38 49 52
14 20 26 31 37 44 47 45 42 36 32 32 38 38 32 28 18 73 74 87 91 82 76 64 43 63 50 42 38 39 43 32 28 26 24 22 20 18 14 15 35 55 54 54 55
13 15 16 18 22 26 29 30 31 31 32 39 46 45 38 36 20 54 74 64 64 69 67 61 58 70 52 49 38 46 35 33 31 27 24 23 20 18 17 16 23 23 28 48 54
15 14 14 13 13 13 12 11 12 14 18 30 49 56 56 64 33 14 15 18 20 40 60 70 73 55 55 46 40 43 38 32 28 24 23 21 20 20 18 16 14 32 42 49 50
12 13 16 16 15 14 12 11 9 10 12 20 45 55 89 94 24 18 18 16 23 21 31 61 68 60 50 45 44 35 34 33 28 25 22 22 21 19 17 16 13 39 45 50 54
14 12 11 10 10 10 10 8 7 8 14 21 39 78 94 76 24 22 27 25 30 36 27 38 66 64 66 49 37 36 42 36 32 28 26 23 25 22 17 16 13 24 47 48 51
12 10 9 8 9 8 8 7 8 12 25 19 36 90 96 37 39 31 46 42 42 47 54 37 61 66 70 67 54 40 40 50 33 30 26 27 34 23 19 17 14 14 48 59 53
16 12 9 8 7 7 7 20 40 42 50 32 54 88 91 54 45 43 52 58 55 55 62 75 71 81 73 80 72 50 53 45 38 27 27 30 32 23 19 17 16 13 14 35 56
16 14 13 11 8 8 30 40 41 69 67 80 95 100 81 50 50 54 60 68 63 62 54 89 85 86 79 88 81 64 51 43 40 29 28 30 30 23 19 17 16 14 13 15 29
20 13 14 13 11 34 55 45 75 76 67 70 63 85 63 57 64 59 67 70 70 69 79 68 96 96 78 76 65 45 41 40 31 28 31 30 30 25 21 18 17 16 14 13 14
47 36 20 11 10 43 69 85 90 91 91 62 68 72 53 60 77 61 66 75 73 81 67 70 93 79 81 72 79 54 47 44 32 28 29 31 29 24 22 19 16 16 15 15 14
53 52 41 20 28 41 49 73 70 70 82 51 42 56 50 54 76 60 59 70 77 81 83 87 63 56 83 94 92 78 48 44 39 32 27 29 33 29 22 18 17 15 14 14 14
53 49 51 40 30 18 64 60 50 61 94 62 41 54 53 46 56 54 57 53 80 81 77 83 62 61 89 100 92 99 46 39 36 37 44 28 44 28 25 22 18 16 15 14 14
59 53 49 56 60 59 52 62 56 76 85 32 38 44 31 47 45 72 68 77 71 73 79 79 87 82 82 86 75 94 68 49 47 42 38 35 38 29 23 24 21 17 15 15 14
57 54 45 43 56 72 84 67 74 86 92 41 26 32 34 56 71 57 67 87 81 92 84 92 64 90 91 64 61 75 85 79 62 52 61 38 39 36 27 22 19 17 15 14 14
55 40 46 47 40 63 82 73 84 95 44 40 37 38 36 64 43 60 66 90 94 97 94 73 82 77 72 95 77 81 98 99 98 96 85 41 40 33 24 20 18 18 15 14 13
37 29 36 28 54 70 83 83 94 57 51 35 39 44 43 57 49 60 80 94 96 96 96 93 84 82 70 95 86 87 90 99 97 92 84 44 52 36 20 19 17 15 14 14 13
32 39 54 74 64 74 86 99 79 61 40 48 52 55 46 52 57 63 81 75 91 100 100 97 86 46 49 67 80 96 97 80 100 100 81 60 48 27 21 20 18 20 15 15 14
49 61 83 80 74 80 88 87 74 49 44 49 81 62 79 64 78 64 72 80 98 97 99 90 92 74 83 69 74 86 84 99 97 97 97 82 52 49 34 26 23 29 28 19 16
74 86 82 72 69 80 97 92 68 49 50 54 63 67 66 93 76 74 59 71 91 88 92 96 94 64 78 94 85 96 98 98 98 100 94 95 69 30 34 30 30 26 26 25 22
75 97 83 70 67 86 100 75 56 58 50 60 66 56 60 57 61 75 64 57 61 69 90 87 97 96 59 78 95 83 94 88 99 99 97 79 78 37 37 34 30 32 27 22 18
82 82 50 63 95 99 86 72 60 59 52 47 51 46 47 52 69 84 67 51 53 69 84 76 92 97 56 89 86 98 99 100 100 100 100 94 78 48 62 70 69 62 58 41 34
88 98 64 68 77 79 81 74 77 54 54 43 49 48 56 71 68 75 74 57 58 64 62 74 94 89 89 88 96 96 94 97 99 98 90 87 72 52 66 84 80 74 61 54 37
88 93 83 95 81 83 77 74 76 74 50 46 55 53 71 82 72 78 70 68 58 80 88 82 98 94 87 86 90 90 94 87 97 97 98 73 82 65 62 87 83 77 72 67 64
75 96 85 90 76 81 79 82 75 67 62 64 61 54 59 88 76 75 65 75 76 77 77 95 97 95 90 73 69 91 79 79 79 91 88 79 75 56 52 56 74 82 85 84 78
96 86 91 82 90 96 88 76 71 63 56 52 60 63 68 61 48 52 52 55 60 65 68 89 98 92 93 73 74 86 72 66 60 64 64 80 57 71 63 67 61 78 82 92 90

GFSSW_850_rhum_249.txt.gz
RH
35 39 37 36 39 37 39 43 42 37 33 28 26 24 23 20 14 10 15 18 25 45 58 40 33 28 33 42 43 37 54 50 36 35 25 20 22 19 18 17 16 41 38 35 46
18 20 22 24 26 31 34 35 33 32 32 30 28 27 27 26 17 50 69 54 65 50 66 66 48 34 37 45 42 48 64 44 32 25 26 22 25 25 21 20 16 43 45 39 50
10 10 11 13 16 17 18 18 19 21 24 27 31 34 31 28 18 63 72 67 49 82 68 71 72 70 63 46 43 47 48 33 32 29 28 30 28 25 20 22 16 19 60 41 51
7 7 8 8 7 6 6 6 6 7 9 11 16 36 38 32 14 58 71 22 23 33 46 67 72 76 66 58 44 52 42 38 33 31 32 32 27 25 23 22 20 17 52 41 50
7 6 6 6 5 5 5 4 4 6 8 10 13 21 33 65 28 14 33 20 19 19 23 33 73 72 66 55 45 49 42 37 35 34 33 31 29 27 24 22 21 19 56 60 39
6 6 6 5 5 4 4 4 4 4 4 6 10 24 60 89 14 22 17 17 34 29 31 32 64 73 68 56 50 42 41 39 37 36 34 31 29 24 23 21 20 18 47 68 47
8 7 6 5 5 5 4 4 4 15 18 10 10 18 62 42 10 14 19 27 47 50 46 50 42 66 66 68 55 47 50 40 37 38 36 29 34 30 24 22 20 17 47 62 62
11 9 8 8 7 6 4 4 7 37 31 25 31 22 54 16 31 36 52 43 52 55 56 50 56 67 64 66 61 54 46 53 31 34 35 30 39 25 24 24 21 18 40 62 64
13 10 9 9 9 7 6 10 25 62 49 51 43 67 82 42 40 47 50 51 57 63 62 50 70 63 69 76 76 67 53 47 39 29 36 35 37 26 24 24 23 20 20 60 60
26 17 12 10 10 8 26 20 38 73 60 64 95 96 60 52 58 56 56 64 66 68 63 68 80 87 83 88 88 82 70 49 42 28 33 40 37 28 24 25 23 21 18 56 58
46 40 29 17 10 33 51 31 55 64 46 61 53 72 60 56 57 53 57 70 78 80 76 63 76 84 75 76 67 60 54 52 35 32 33 38 37 31 27 25 24 21 19 36 61
53 43 39 29 16 52 44 73 77 92 92 51 34 61 59 60 78 48 61 76 83 92 70 80 89 59 48 70 85 76 69 58 43 34 34 33 36 29 27 26 24 22 20 17 30
65 48 42 33 21 32 42 68 64 62 88 47 35 51 49 51 72 60 69 79 85 89 86 91 66 48 55 57 84 95 85 70 63 39 32 33 39 33 28 23 22 22 20 18 16
65 54 47 40 35 37 54 63 46 62 86 50 50 51 40 45 57 55 50 68 75 88 78 83 65 69 74 78 60 97 69 82 61 61 65 32 50 33 30 29 23 21 20 19 17
60 45 55 46 40 58 75 63 58 82 41 24 44 29 25 52 54 54 51 76 95 94 80 75 73 85 84 70 59 72 65 76 69 70 56 49 47 37 26 30 27 22 19 19 17
50 43 45 49 40 63 73 67 72 77 42 46 30 38 42 49 64 56 63 75 82 87 82 86 64 70 76 64 65 57 83 84 96 96 96 61 49 43 34 28 23 22 20 18 18
59 33 32 44 33 46 73 67 78 73 38 46 44 46 49 59 53 58 65 91 91 95 90 69 73 75 67 85 68 83 99 96 97 98 93 62 53 42 28 23 22 19 20 18 17
50 26 34 61 40 67 75 76 60 39 55 42 48 53 51 54 58 60 72 98 94 97 93 93 84 82 70 81 78 89 94 85 92 94 83 56 64 43 25 22 19 18 17 18 17
35 35 79 80 61 69 73 94 73 56 48 57 58 62 61 54 66 75 81 81 88 98 96 100 89 52 48 58 78 79 98 63 78 90 96 64 47 37 27 22 22 25 19 17 16
34 56 87 75 85 72 85 88 73 57 52 56 75 62 79 71 84 76 80 72 93 92 91 88 95 56 64 72 68 84 91 99 98 93 94 85 55 43 36 31 22 20 25 19 17
56 62 89 76 79 85 97 93 71 54 54 61 68 74 65 77 57 66 71 63 85 87 95 96 98 65 61 87 97 93 99 100 99 97 85 97 89 41 35 30 28 24 20 20 18
59 91 75 91 68 90 99 85 65 61 50 56 58 56 54 59 64 60 87 72 55 76 99 91 98 94 67 77 91 98 97 97 98 99 100 96 83 70 80 72 57 63 57 38 31
67 79 60 61 92 99 90 81 65 65 58 55 54 48 51 60 77 72 64 58 60 64 87 98 96 96 61 92 90 95 93 95 96 98 97 94 83 63 77 78 78 76 69 62 45
73 98 62 77 81 82 82 79 77 58 61 56 52 52 57 70 64 70 65 63 55 57 73 95 97 92 94 90 92 97 86 86 98 97 96 90 72 64 62 76 82 83 83 71 64
74 90 90 97 79 80 80 76 74 77 58 52 59 57 66 81 68 66 55 53 49 55 69 76 97 96 94 86 81 92 93 89 96 94 97 82 85 68 66 81 81 80 83 84 78
85 92 96 91 81 81 75 88 78 68 69 68 72 66 69 86 77 83 70 68 66 56 72 73 94 79 89 70 77 75 54 53 71 84 93 81 78 72 65 57 64 68 79 84 88
98 93 95 83 91 96 91 78 70 69 62 60 65 74 75 66 55 54 61 61 62 66 66 74 97 95 85 76 72 76 58 61 68 73 85 90 77 68 68 67 60 62 80 86 90

GFSSW_850_rhum_255.txt.gz
RH
9 7 6 6 5 6 6 6 6 5 5 4 4 3 3 2 3 7 23 50 39 44 33 19 40 50 49 43 44 43 45 47 40 33 26 21 21 23 23 23 21 20 36 44 48
20 10 8 7 6 6 5 4 4 4 4 3 3 3 3 2 3 11 54 57 46 34 42 51 32 48 60 42 40 43 48 41 33 30 27 21 22 24 23 22 20 22 32 24 62
16 10 8 6 6 6 5 5 4 4 4 4 4 3 3 3 16 58 68 70 28 18 26 43 60 58 70 51 45 44 45 34 33 33 31 29 27 29 24 24 22 21 39 36 44
9 8 7 6 5 5 4 4 4 4 4 8 8 5 3 4 9 49 66 75 53 33 18 29 59 73 73 62 48 42 37 45 39 38 39 34 33 30 30 26 24 23 22 25 35
10 8 7 6 6 5 5 4 4 4 6 11 17 13 10 8 9 29 34 57 54 34 26 30 59 72 68 64 56 50 39 34 34 37 39 39 37 36 33 30 30 28 26 31 45
11 8 7 6 6 5 4 4 4 5 9 15 21 24 25 17 15 15 13 20 18 33 37 35 49 61 63 72 67 57 56 52 48 35 35 38 36 36 33 32 32 32 29 26 22
21 13 10 7 6 5 4 4 4 6 11 28 35 41 33 16 44 45 40 29 51 45 39 36 47 56 66 65 65 62 64 49 48 49 38 35 37 37 31 32 31 30 26 24 22
34 27 18 12 8 6 5 5 6 9 21 35 39 45 37 39 40 44 53 55 52 37 30 33 63 65 66 60 50 53 49 51 25 37 42 34 34 23 24 27 29 30 29 27 24
36 29 22 17 14 8 6 7 7 14 29 28 42 29 42 43 41 44 45 49 49 45 30 44 75 70 58 58 46 49 50 36 32 31 34 36 35 22 22 23 24 27 27 26 24
34 26 23 18 17 11 8 6 10 23 28 28 27 32 37 46 46 54 52 57 72 56 58 69 74 68 69 63 32 25 40 43 49 40 36 34 35 26 23 20 24 26 27 25 25
25 21 19 17 19 16 12 9 18 28 21 33 37 47 43 48 46 56 58 61 74 78 64 65 65 75 66 54 46 55 53 46 40 39 44 40 41 33 27 26 24 20 25 27 28
29 20 17 18 22 26 17 45 85 65 83 27 42 43 50 55 54 50 61 67 75 72 74 72 81 50 51 52 55 59 56 43 34 35 48 44 43 37 36 32 26 24 22 25 26
28 24 19 19 24 24 36 61 78 75 79 25 30 40 38 52 57 50 63 74 78 84 79 85 60 54 58 59 67 58 56 49 44 35 37 48 53 47 37 32 31 28 26 25 27
33 30 21 16 24 30 53 61 64 66 52 22 50 46 29 41 58 56 64 68 68 80 77 79 66 68 66 80 69 79 50 51 48 47 52 57 74 42 31 31 31 28 27 27 26
50 47 31 18 23 34 50 56 61 66 48 21 36 33 30 40 52 54 53 70 69 66 74 65 60 64 69 65 57 67 55 59 56 56 48 47 60 47 39 40 29 28 26 26 27
49 46 18 24 27 41 48 58 64 67 41 42 38 42 46 45 46 44 47 67 77 82 74 79 68 66 68 59 59 56 64 62 60 71 86 48 44 38 31 34 32 27 24 24 24
46 28 25 31 37 29 46 55 72 61 32 51 52 45 54 52 46 52 55 68 74 84 75 56 57 61 69 73 60 66 85 84 75 89 71 29 42 39 28 28 26 27 26 24 23
43 43 70 64 42 50 61 70 56 38 49 51 51 52 58 54 52 60 65 68 78 88 90 80 55 62 67 62 61 62 71 87 84 63 43 28 39 30 25 27 26 29 28 27 24
40 82 77 65 63 63 54 81 67 46 57 61 53 59 56 54 64 57 63 80 95 88 91 94 81 48 50 50 56 63 82 73 96 82 83 46 33 26 21 26 25 32 32 28 26
42 78 80 81 71 69 80 77 62 55 60 57 67 61 67 60 57 50 60 83 72 71 91 78 79 47 48 52 69 79 76 86 95 94 90 52 43 28 33 43 48 43 34 34 30
40 73 91 84 80 69 90 83 64 60 57 56 66 63 60 68 54 49 47 56 62 67 48 66 91 54 53 52 65 69 77 93 96 85 93 86 48 82 89 87 79 71 58 47 33
48 69 84 73 78 98 95 73 75 68 53 57 63 63 58 55 55 50 48 54 44 51 60 71 90 81 58 57 80 82 84 86 92 82 76 88 59 71 89 84 82 67 77 77 63
61 53 69 81 91 94 83 80 80 63 62 57 52 47 51 56 63 56 48 46 46 48 50 60 81 81 47 53 68 68 79 87 91 92 77 88 54 36 66 82 88 81 76 82 80
68 81 66 79 72 72 80 73 72 62 58 61 57 55 58 66 53 63 58 48 53 49 50 50 75 88 87 76 68 90 71 74 87 91 84 74 66 58 62 96 94 91 87 79 87
72 82 94 84 86 82 78 77 73 66 62 61 58 58 62 73 67 64 48 52 50 49 51 61 86 78 72 65 52 56 75 68 72 67 84 52 55 60 73 89 96 97 92 94 83
78 81 100 98 92 84 77 77 72 60 65 63 68 60 65 89 78 89 72 64 63 51 56 68 76 63 76 48 47 53 45 44 47 54 62 58 63 58 60 64 76 96 97 93 95
84 84 83 83 85 88 82 68 69 69 64 64 67 75 77 66 69 68 65 63 58 63 69 69 83 78 79 45 54 68 46 39 45 57 74 89 96 79 65 57 66 90 92 97 96

GFSSW_850_rhum_258.txt.gz
RH
6 6 6 5 4 4 4 4 4 3 3 2 2 2 2 2 2 14 57 34 38 41 35 44 43 57 51 39 38 35 30 25 21 22 21 18 15 17 15 14 14 15 28 43 69
6 5 5 4 4 4 4 4 4 3 3 2 2 2 2 3 18 64 42 57 25 15 17 41 42 42 44 38 31 32 24 20 15 18 22 21 19 16 16 15 15 16 42 53 68
6 6 5 4 4 4 4 3 3 3 3 3 3 4 3 4 39 71 60 58 48 25 30 26 50 49 31 37 30 28 28 17 17 23 24 24 23 22 19 17 14 15 17 44 65
8 7 7 6 6 5 4 4 4 4 4 4 4 4 6 6 14 54 57 49 29 28 31 33 44 37 31 26 32 29 25 22 23 23 25 26 26 25 24 20 18 16 19 21 25
12 10 8 7 6 6 5 5 5 5 5 5 6 7 8 14 20 15 15 16 28 36 34 31 30 39 32 28 31 36 29 24 23 24 27 29 27 26 26 25 24 24 23 24 28
27 21 16 12 8 6 6 6 6 7 8 9 15 18 21 15 32 34 25 14 42 39 36 32 36 41 42 38 38 27 34 35 35 35 32 26 24 24 22 23 25 26 26 25 24
33 26 21 16 11 7 6 6 6 8 12 20 21 24 33 39 46 42 33 29 36 51 40 44 44 32 31 28 32 41 40 26 21 22 33 30 28 24 20 19 22 23 24 23 22
27 24 21 15 12 9 7 7 7 9 20 15 17 27 38 38 37 54 57 56 50 48 50 52 54 44 32 21 22 14 16 21 13 12 15 30 37 18 17 18 18 18 20 22 23
20 18 16 14 11 10 9 8 9 16 14 19 38 46 40 43 48 51 49 58 58 55 59 50 50 38 29 24 17 12 14 12 11 9 14 24 36 23 19 19 17 18 18 18 20
21 18 16 13 12 12 10 9 16 15 16 17 31 44 40 44 47 52 58 49 64 61 51 50 44 35 28 22 23 13 10 10 13 12 18 25 26 20 20 20 20 18 16 14 15
25 21 17 13 13 14 10 16 39 36 44 51 47 50 44 47 42 52 49 70 68 58 42 45 39 34 24 21 19 20 20 18 14 11 13 15 20 22 19 22 22 20 19 17 20
28 23 17 13 17 16 12 33 54 29 39 40 39 41 32 36 49 48 64 47 50 48 46 46 54 36 33 35 36 36 35 29 20 15 16 15 17 15 14 20 22 26 24 20 18
30 26 17 13 17 21 28 37 40 30 37 28 39 39 36 50 43 36 60 54 45 46 42 52 40 38 43 42 46 41 41 35 32 25 23 23 21 16 13 15 18 20 24 27 22
40 34 24 14 24 28 56 41 42 36 32 36 42 38 29 33 42 51 58 53 36 47 45 44 41 46 42 47 45 56 32 35 38 37 38 20 31 18 15 14 13 18 23 22 24
40 36 19 14 18 55 40 49 51 48 62 31 28 32 28 28 34 36 49 47 46 36 41 46 41 36 41 40 40 50 37 43 47 49 40 32 34 23 13 17 21 20 18 19 20
38 30 20 21 24 27 34 51 60 70 53 36 29 28 26 31 28 30 34 47 51 55 42 59 45 43 45 41 39 40 49 46 48 48 67 38 33 24 14 10 10 12 19 19 18
36 26 39 43 52 24 41 58 76 64 27 38 37 30 31 38 31 30 35 50 72 86 54 38 32 40 49 41 31 36 54 70 57 71 61 22 25 20 15 13 10 11 11 16 21
33 52 54 45 44 51 54 60 57 33 39 38 36 29 40 42 33 37 43 56 61 64 65 64 62 40 33 42 48 46 52 85 87 48 37 21 28 19 12 12 13 11 16 17 20
39 67 69 59 58 52 64 89 63 36 44 44 31 35 35 35 39 40 39 53 68 59 77 74 55 29 28 33 36 46 62 53 92 61 71 36 24 18 34 38 51 50 37 26 16
61 82 82 70 62 68 89 76 46 45 44 39 43 42 43 36 43 37 37 55 55 48 48 50 65 28 35 30 35 54 52 73 70 82 71 38 36 54 77 73 63 66 74 59 51
57 66 86 70 66 68 84 65 46 48 47 41 44 45 40 47 40 37 35 32 42 41 34 45 77 43 30 44 54 56 76 66 92 78 82 67 40 92 52 48 65 75 86 84 65
57 85 81 67 77 94 78 49 62 47 44 41 45 45 44 38 39 38 38 35 37 35 47 42 69 63 42 28 53 53 64 59 85 81 66 63 53 41 30 34 80 94 95 91 76
74 61 79 73 86 82 54 53 58 46 43 45 42 35 33 42 50 38 38 31 36 39 44 44 58 70 37 39 57 61 76 77 76 68 75 76 50 23 26 35 56 92 97 96 94
76 94 79 81 66 54 55 52 55 57 50 41 40 40 41 48 43 55 41 34 41 38 41 47 59 69 68 63 63 61 61 70 68 86 65 60 46 34 37 52 57 74 95 99 98
85 87 78 90 92 60 55 55 52 52 44 47 43 43 46 64 50 48 38 36 35 34 37 48 69 54 55 46 40 41 55 43 64 69 79 51 46 54 62 65 62 79 96 98 97
86 94 85 65 65 58 60 57 52 44 48 44 49 43 44 70 64 80 55 54 48 38 41 45 74 54 62 40 35 35 28 30 30 32 45 40 54 77 94 73 80 95 97 98 99
81 77 80 74 62 66 59 48 48 50 46 48 49 51 53 47 51 53 54 51 48 51 51 55 71 75 74 40 40 55 35 28 32 31 42 73 94 80 94 82 92 93 98 98 99

GFSSW_850_rhum_261.txt.gz
RH
5 4 4 4 4 4 3 3 3 3 3 3 3 3 3 3 22 33 61 33 26 16 25 28 26 34 41 34 26 24 26 24 19 15 13 11 13 12 12 11 9 10 12 31 48
4 4 4 4 4 4 3 3 3 3 3 3 4 4 4 4 43 54 40 44 17 16 29 20 27 28 25 28 26 23 24 20 13 13 13 13 13 15 14 12 12 11 15 34 43
5 5 5 5 4 4 4 4 4 4 4 4 5 5 5 8 36 58 57 46 27 8 26 20 26 24 23 16 21 21 22 16 14 12 13 16 16 17 15 14 12 12 12 21 37
6 6 6 6 5 5 5 4 5 5 5 6 6 6 5 18 23 45 13 9 8 24 21 18 19 21 16 14 13 19 17 15 15 15 14 15 18 19 18 16 14 14 13 14 20
10 9 8 7 6 6 5 5 5 6 6 7 8 8 20 15 23 40 15 18 27 24 21 18 14 19 18 14 15 15 14 15 17 17 15 16 17 19 19 19 18 17 18 17 16
19 17 14 12 10 8 6 6 6 6 7 10 10 12 40 17 40 42 37 31 31 27 23 25 23 22 17 14 15 16 17 18 21 22 21 20 20 18 17 16 18 19 19 20 20
19 19 15 13 12 10 8 7 7 8 12 11 13 37 27 34 41 42 42 43 37 32 26 27 31 25 16 14 15 16 21 18 15 13 14 14 18 21 19 16 15 14 16 18 18
16 16 14 13 12 11 9 9 8 11 11 12 23 54 34 42 45 42 43 35 37 38 35 33 31 29 24 18 16 13 11 11 6 5 7 9 14 10 15 17 15 13 13 16 16
18 18 17 14 12 13 11 9 13 11 18 27 49 54 35 40 37 42 48 44 44 36 38 36 32 26 21 19 18 12 12 8 6 4 4 9 12 8 11 16 18 16 12 13 14
22 21 19 15 13 13 11 16 21 39 21 58 38 38 31 34 38 46 42 52 47 46 37 33 31 25 20 18 22 14 11 9 9 6 5 7 8 8 11 14 16 15 15 13 14
24 22 19 15 14 13 51 49 53 34 37 33 34 29 30 32 41 35 43 48 34 31 31 25 30 23 18 18 17 16 17 16 12 9 10 10 9 8 9 12 15 16 15 14 14
25 23 17 14 13 14 50 40 55 51 33 34 38 32 37 39 32 26 38 32 31 30 24 26 36 25 24 22 24 23 23 21 16 12 13 12 12 10 9 8 9 12 16 16 16
28 29 20 16 17 62 51 51 59 53 31 31 34 29 28 30 29 29 37 32 24 31 27 30 25 20 28 26 27 26 27 24 21 17 16 18 19 16 12 11 10 10 11 14 18
28 28 20 17 48 58 57 62 53 64 40 33 30 28 22 22 31 28 34 31 31 28 24 28 20 26 25 26 23 33 22 24 24 23 29 16 24 14 10 8 7 7 9 12 13
27 26 18 15 53 48 46 55 30 80 93 27 21 23 19 20 21 23 23 34 33 28 30 38 28 24 24 23 25 31 24 26 27 28 27 24 25 18 12 12 10 9 9 8 9
27 25 21 44 66 39 28 35 81 76 70 30 20 21 19 22 22 20 22 24 31 35 32 30 24 24 24 24 23 24 28 28 26 30 52 29 24 20 15 12 10 8 7 10 15
28 29 37 64 64 23 32 64 84 85 22 27 24 20 20 27 23 23 24 38 54 75 50 29 39 27 32 36 28 39 49 65 52 61 65 26 24 17 13 20 15 16 16 12 8
29 34 41 40 50 37 75 57 84 32 29 26 23 20 28 30 28 29 32 34 46 48 58 48 51 70 32 25 30 30 38 82 86 60 42 20 23 29 33 33 34 38 43 48 54
41 75 85 47 42 63 59 99 72 28 30 29 22 23 22 23 29 29 29 34 48 52 72 58 48 25 21 21 25 32 52 42 64 50 57 27 28 36 40 27 29 32 41 50 61
67 70 78 44 43 76 86 82 38 33 30 27 32 29 31 25 32 29 29 33 39 35 34 44 61 28 20 28 20 41 33 74 64 73 66 31 29 54 38 43 24 34 41 53 64
66 55 80 46 72 68 99 54 37 34 34 32 34 34 31 33 30 29 28 24 34 30 28 34 58 44 28 29 36 38 51 91 61 62 88 66 35 24 56 28 26 36 41 56 73
53 82 83 78 80 88 81 36 39 33 36 32 36 36 35 32 31 30 31 26 33 27 36 38 66 59 40 24 19 25 78 58 72 68 60 55 43 18 24 23 33 38 50 64 85
56 54 75 87 97 82 41 40 41 36 30 35 36 30 29 34 40 31 31 25 28 29 38 43 53 79 39 26 67 80 81 81 72 61 68 69 47 20 32 42 42 55 60 79 96
62 100 76 70 50 47 44 42 46 42 38 35 32 32 34 37 32 39 34 26 28 32 30 35 52 69 73 59 70 58 62 62 63 70 59 52 40 27 51 52 57 81 76 98 100
81 88 67 97 94 51 44 40 40 43 38 36 37 34 34 44 44 42 32 30 28 26 30 34 73 60 58 42 30 30 42 31 50 51 65 39 33 25 51 50 66 85 89 99 99
54 92 60 48 49 47 51 45 41 32 34 35 40 33 34 45 43 59 42 40 40 32 32 35 64 49 62 38 34 39 32 27 24 23 25 24 27 43 35 52 78 89 80 98 99
69 69 61 60 48 54 55 43 38 35 38 38 37 39 42 37 37 41 42 39 38 40 41 43 62 69 78 42 43 57 32 26 23 20 25 52 59 37 57 57 94 83 65 87 99